Location: Napier
(39.4830°S, 176.9170°E)
Time: 10:50:23
(UTC+13:00)

MOS 1 - Pass Details

Date: 24 January 2019
Orbit: 878 x 892 km, 99.2° (Epoch: 19 February)

Event Time Altitude Azimuth Distance (km) Brightness Sun altitude
Rises 21:11:04 0° 167° (SSE) 3,539 7.7 -6.8°
Reaches altitude 10° 21:13:30 10° 166° (SSE) 2,593 7.0 -7.2°
Maximum altitude 21:19:18 90° 228° (SW) 906 4.4 -8.1°
Drops below altitude 10° 21:25:01 10° 344° (NNW) 2,558 6.5 -9.0°
Sets 21:27:24 0° 344° (NNW) 3,489 7.2 -9.4°
